Location: Palomar Mountain Lodge
(33.3110°N, 116.8495°W)
Time: 14:57:13
(UTC-08:00)

Cosmos 2322 Rocket - Pass Details

Date: 13 December 2025
Orbit: 831 x 850 km, 71.0° (Epoch: 20 January)

Event Time Altitude Azimuth Distance (km) Brightness Sun altitude
Rises 19:01:26 0° 200° (SSW) 3,381 5.7 -28.5°
Reaches altitude 10° 19:03:52 10° 201° (SSW) 2,452 4.9 -29.0°
Enters shadow 19:08:39 66° 211° (SSW) 921 2.4 -30.0°
